Regional Weather Roundup
Issued by NWS

Home | Current Version | Previous Version | Text Only | Print | Product List | Glossary On
Versions: 1 2 3 4 5 6 7 8 9 10 11 12 13 14 15 16 17 18 19 20 21 22 23 24 25 26 27 28 29 30 31 32 33 34 35 36 37 38 39 40 41 42 43 44 45 46 47 48 49 50
000
ASUS42 KKEY 220810
RWRKEY

FLORIDA REGIONAL WEATHER ROUNDUP FOR THE FLORIDA KEYS
NATIONAL WEATHER SERVICE KEY WEST FLORIDA
400 AM EDT MON SEP 22 2014

...SOUTH FLORIDA AND THE KEYS...

CITY           SKY/WX    TMP DP  RH WIND       PRES   REMARKS
FORT MYERS     CLOUDY    74  74 100 CALM      29.97F
SW REGIONAL AP CLOUDY    74  61  63 CALM      29.97F
NAPLES         CLOUDY    77  75  93 E5        29.97F
MIAMI          CLOUDY    78  73  84 CALM      29.98F
WEST KENDALL   MOCLDY    78  73  84 MISG      29.98F
HOMESTEAD      MOCLDY    77  73  88 N1        29.97F
MARATHON       PTCLDY    83  77  82 SE5       29.96F HX  92
BOCA CHICA NAS MOCLDY    83  75  77 SE8       29.95F THUNDER HX  90
KEY WEST INTL  PTCLDY    84  75  74 SE8       29.96F HX  92

...INTERNATIONAL WEATHER...

CITY           SKY/WX    TMP DP  RH WIND       PRES   REMARKS
NASSAU BAHAMAS PTCLDY    81  75  83 CALM      29.97F
CANCUN MEXICO  MOCLDY    81  77  89 SE6       29.93F
COZUMEL MEXICO CLEAR     73  73 100 SE9       29.93F

ADJACENT COASTAL WATERS...

STATION/POSITION TIME  SKY/WX   TEMP    WIND        PRES    WAVE
                                AIR SEA DIR/SP/G            HT/PER
                 (UTC)          (F)     (DEG/KT/KT) (MB)    (FT/S)
PULASKI SHOAL LI 0800            81     120/  9/ 11 1014.5F
SAND KEY         0800            84     140/ 12/ 13 1014.4F
SOMBRERO KEY     0700            84     120/ 11/ 12 1015.6F
LONG KEY         0700            83 85  120/  8/  9 1015.8F
MOLASSES REEF    0700            83 86  120/  6/  6 1015.2F
FOWEY ROCKS      0700            82 85  100/  6/  6 1015.5F
Buoy 42080       NOT AVBL

$$


USA.gov is the U.S. government's official web portal to all federal, state and local government web resources and services.